Regional Weather Roundup
Issued by NWS Goodland, KS

Home | Current Version | Previous Version | Graphics & Text | Print | Product List | Glossary On
Versions: 1 2 3 4 5 6 7 8 9 10 11 12 13 14 15 16 17 18 19 20 21 22 23 24 25 26 27 28 29 30 31 32 33 34 35 36 37 38 39 40 41 42 43 44 45 46 47 48 49 50
000
ASUS43 KGLD 011359
RWRGLD

GOODLAND FORECAST AREA HOURLY WEATHER ROUNDUP
NATIONAL WEATHER SERVICE GOODLAND KS
700 AM MST SUN FEB 01 2015

...OFFICIAL OBSERVATIONS...

CITY           SKY/WX    TMP DP  RH WIND       PRES   REMARKS
GOODLAND KS    CLOUDY    17  12  80 N24G37    30.11R WCI  -1
HILL CITY KS   CLOUDY    17  10  74 NW24G37   30.12R WCI  -1
IMPERIAL NEB   CLOUDY    12   5  73 N26       30.17R WCI  -8
MCCOOK NEB     CLOUDY    13   6  74 N28G33    30.14R WCI  -8
AKRON CO       CLOUDY    19  15  84 N20       30.10R WCI   3
BURLINGTON CO  CLOUDY    21  16  81 N26G35    30.10R WCI   4
LIMON CO       LGT SNOW  18  14  84 N13       30.10R FOG     WCI   5
$$

...UNOFFICIAL OBSERVATIONS...

CITY           SKY/WX    TMP DP  RH WIND       PRES   REMARKS
COLBY KS       MOCLDY    16  14  93 NW23G33   30.10S WCI  -2
GOVE KS          N/A     18  32 100 MISG        N/A
NORTON KS      MOCLDY    12   7  79 NW22G36   30.10R HAZE    WCI  -7
SHARON SPRINGS   N/A     21  17  84 NE21G32     N/A  WCI   5
KIT CARSON CO    N/A     23  19  83 MISG        N/A
YUMA CO          N/A     19  15  82 N12         N/A  WCI   7
$$



USA.gov is the U.S. government's official web portal to all federal, state and local government web resources and services.